Regional Weather Roundup
Issued by NWS Grand Forks, ND

Home | Current Version | Previous Version | Graphics & Text | Print | Product List | Glossary On
Versions: 1 2 3 4 5 6 7 8 9 10 11 12 13 14 15 16 17 18 19 20 21 22 23 24 25 26 27 28 29 30 31 32 33 34 35 36 37 38 39 40 41 42 43 44 45 46 47 48 49 50
000
ASUS43 KFGF 172010
RWRFGF
PRAIRIE TO PINES  WEATHER ROUNDUP
NATIONAL WEATHER SERVICE EASTERN NORTH DAKOTA/GRAND FORKS ND
200 PM CST SUN DEC 17 2017

 **SATELLITE DATA USED TO AUGMENT SKY COVER AT AUTOMATED STATIONS**
 *****  WEATHER ACROSS EASTERN NORTH DAKOTA  *****

CITY           SKY/WX    TMP DP  RH WIND       PRES   REMARKS
GRAND FORKS    FAIR      26  22  84 S6        29.90F WCI  19
GRAND FRKS AFB FAIR      33  20  59 W8        29.88F
GRAND FRKS NWS   N/A     28 N/A N/A SW5         N/A  WCI  23
DEVILS LAKE    FAIR      33  23  66 SW7       29.86F
FARGO          FAIR      31  28  89 S9        29.94F WCI  23
WAHPETON ARPT  FAIR      32  32 100 S3        29.96F
$$

 ***** WEATHER ACROSS CENTRAL AND WESTERN NORTH DAKOTA  *****

CITY           SKY/WX    TMP DP  RH WIND       PRES   REMARKS
BISMARCK       FAIR      40  23  50 SW10      29.88F
MINOT          FAIR      41  23  48 S14       29.78F
JAMESTOWN      FAIR      38  26  62 SW10      29.88F
MINOT AFB      FAIR      40  22  48 SW12      29.77F
GARRISON         N/A     38  25  59 S15       29.81F
WILLISTON      FAIR      36  25  64 SW12      29.75F
DICKINSON      PTSUNNY   39  25  57 SW23G30   29.79F
HETTINGER      FAIR      41  22  46 SW16      29.84F
$$

 *****  OTHER AIRPORT OBSERVATIONS IN OUR AREA  *****

CITY           SKY/WX    TMP DP  RH WIND       PRES   REMARKS
WALHALLA       FAIR      30  18  59 SW15G23   29.84F WCI  19
GRAFTON AIRPOR NOT AVBL
VALLEY CITY AR NOT AVBL
CANDO          FAIR      34  27  75 SW6       29.86F
CAVALIER APRT  FAIR      32  18  55 SW15      29.85F WCI  22
GWINNER          N/A     37  28  70 SW7       29.93F
SHEYENNE NWR     N/A     37  30  75 S5        29.95S
ROLLA          FAIR      27  21  80 S8        29.81F WCI  18
 ***** THE ABOVE OBSERVATIONS ARE NON NWS ARE NOT QUALITY
       CONTROLLED AND MAY MIS-REPORT RAIN FOR SNOW...
$$

  *****  WEATHER ACROSS NORTHERN MINNESOTA  *****

CITY           SKY/WX    TMP DP  RH WIND       PRES   REMARKS
FLAG ISLAND    FAIR      19  18  93 S3        29.84F
WARROAD        FAIR      27  21  80 SW8       29.87F WCI  18
ROSEAU         FAIR      25  19  80 SW8       29.88F WCI  16
HALLOCK        FAIR      21  19  93 S9        29.88F WCI  11
THF RVR FALLS  FAIR      23  21  92 S8        29.90  WCI  14
BAUDETTE       FAIR      30  24  78 SW8       29.87F WCI  22
WASKISH        FAIR      28  27  93 SW7       29.90F WCI  21
CROOKSTON      FAIR      21  21 100 S9        29.92F WCI  11
$$
  *****  WEATHER ACROSS CENTRAL AND WEST MINNESOTA  *****

CITY           SKY/WX    TMP DP  RH WIND       PRES   REMARKS
FOSSTON        CLOUDY    27  25  93 SW8       29.92F FOG     WCI  18
BEMIDJI        FAIR      33  28  80 SW6       29.90F
PARK RAPIDS    CLOUDY    28  26  92 SW7       29.93F WCI  21
ELBOW LAKE     CLOUDY    29  29 100 SW7       29.97F FOG     WCI  22
WADENA         PTSUNNY   28  27  93 CALM      29.95F
DETROIT LAKES  FAIR      32  28  86 SW7       29.94F
MOORHEAD       CLOUDY    28  27  93 S9        29.95F FOG     WCI  20
FERGUS FALLS   CLOUDY    30  30 100 S5        29.99F FOG
MORRIS MN      PTSUNNY   30  28  93 S7        29.97F WCI  23
STAPLES        CLOUDY    28  27  93 CALM      29.96F FOG
$$
  *****  WEATHER ELSEWHERE ACROSS MINNESOTA  *****

CITY           SKY/WX    TMP DP  RH WIND       PRES   REMARKS
DULUTH         CLOUDY    23  21  92 W7        29.95F WCI  15
INTRNTL FALLS  FAIR      29  24  82 SW5       29.88F WCI  24
ELY            CLOUDY    23  21  93 SW6       29.93F WCI  16
CLOQUET        CLOUDY    25  19  80 SW3       29.97F
WHEATON        FAIR      32  30  93 SE7       29.99F FOG
BRAINERD       CLOUDY    26  22  84 S5        29.98F FOG     WCI  20
HIBBING        CLOUDY    22  21  96 S6        29.94F WCI  14
ALEXANDRIA     CLOUDY    29  27  92 S6        29.97F FOG     WCI  23
SAINT CLOUD    FAIR      26  21  81 CALM      30.00F
MINNEAPOLIS    CLOUDY    28  25  88 VRB3      30.01F FOG
$$

  *****  WEATHER ACROSS SOUTH DAKOTA  *****

CITY           SKY/WX    TMP DP  RH WIND       PRES   REMARKS
SIOUX FALLS    PTSUNNY   38  29  70 NE5       29.97F
BROOKINGS      CLOUDY    36  28  73 CALM      29.95
WATERTOWN      CLOUDY    36  33  89 W7        29.94F
HURON          PTSUNNY   41  33  73 MISG      29.96F
SISSETON         N/A     40  32  73 NW5       29.94F
ABERDEEN       PTSUNNY   38  29  70 SW7       29.95F
MITCHELL       CLOUDY    40  32  73 W5        29.98F
PIERRE         CLOUDY    39  31  72 S5        29.92F
MOBRIDGE       FAIR      42  24  49 S9        29.87F
RAPID CITY     FAIR      42  27  55 S14       29.83F
$$

  *****  SOME WEATHER IN NEARBY STATES *****

CITY           SKY/WX    TMP DP  RH WIND       PRES   REMARKS
GLASGOW MT     CLOUDY    37  17  44 SW16      29.71F
GREAT FALLS MT FAIR      37  18  46 SW29G39   29.79F
CHEYENNE WY    FAIR      37  26  64 W12G30    29.86F
SCOTTSBLUFF NE FAIR      44  26  49 W10G21    29.89F
OMAHA NE       PTSUNNY   36  26  67 N9        29.97F
DES MOINES IA  PTSUNNY   38  33  82 CALM      29.95F
DAVENPORT IA   PTSUNNY   45  29  53 W8        29.97F
CHICAGO IL     CLOUDY    40  34  79 CALM      29.97F HAZE
EAU CLAIRE WI  CLOUDY    28  26  92 CALM      30.01F FOG
LA CROSSE WI   CLOUDY    32  28  85 CALM      30.02F
$$

  *****  SOME NATIONAL WEATHER *****

CITY           SKY/WX    TMP DP  RH WIND       PRES   REMARKS
LA GUARDIA NY  CLOUDY    37  24  59 NE6       30.23F
RALEIGH NC     CLOUDY    51  29  42 SW5       30.21S
ATLANTA GA     RAIN      43  42  97 SE5       30.19R FOG
NEW ORLEANS LA LGT RAIN  68  68 100 CALM      30.09R FOG
OKLAHOMA CITY  DRIZZLE   45  43  93 S5        30.00F
ALBUQUERQUE NM FAIR      49  12  22 CALM      30.00F
SALT LAKE CITY FAIR      36  25  64 NW7       30.22R
LOS ANGELES CA FAIR      70  19  14 W7        29.92S
BOISE ID       CLOUDY    36  20  52 N3        30.25F
SEATTLE WA     CLOUDY    48  44  86 S18       30.07F
$$

*** WEATHER ACROSS MANITOBA...SASKATCHEWAN AND ONTARIO ***
                ***ONTARIO***

CITY           SKY/WX    TMP DP  RH WIND       PRES   REMARKS
GERALDTON      FRZ DRZL  25  23  93 W5        29.88F VSB 1   WCI  19
THUNDER BAY    CLOUDY    28  23  80 W9        29.96F WCI  20
SIOUX LOOKOUT  CLOUDY    25  21  86 SW13G21   29.80F WCI  13
TORONTO        CLOUDY    19   3  49 NE8       30.20F WCI   9
BIG TROUT LK   FLURRIES  14  10  85 SW7       29.67F WCI   4
PICKLE LAKE    LGT SNOW  21  19  93 SW10      29.73F WCI  10
DRYDEN         CLOUDY    25  23  93 SW13      29.81F WCI  13
KENORA         CLOUDY    23  21  93 SW12      29.82F WCI  12
$$
                *** MANITOBA***

CITY           SKY/WX    TMP DP  RH WIND       PRES   REMARKS
BRANDON        MOSUNNY   27  18  69 SW13      29.77F WCI  16
DAUPHIN        SUNNY     34  19  55 SW16      29.67F WCI  23
ISLAND LAKE    LGT SNOW  19  18  93 S5        29.62F WCI  13
PILOT MOUND      N/A     23  18  80 S10         N/A  WCI  12
THE PAS        PTSUNNY   27  21  80 S9        29.46F WCI  17
THOMPSON       CLOUDY    12   9  85 S3        29.47F FOG
WINNIPEG       MOSUNNY   25  16  68 S9        29.83F WCI  15
LYNN LAKE      FLURRIES  12  10  92 SE12      29.28F WCI  -2
CHURCHILL      LGT SNOW   3   0  85 SW5       29.55F WCI  -6
$$
                ***SASKATCHEWAN***

CITY           SKY/WX    TMP DP  RH WIND       PRES   REMARKS
ESTEVAN        PTSUNNY   34  23  64 SW17G24   29.70F WCI  23
KINDERSLEY     MOSUNNY   32  21  64 SW14G21   29.53F WCI  22
LLOYDMINSTER   PTSUNNY   37  25  60 W17G25    29.41S
PRINCE ALBERT  PTSUNNY   27  19  74 SW12G17   29.44F WCI  16
REGINA         CLOUDY    32  21  64 SW16G22   29.59F WCI  21
YORKTON        SUNNY     28  19  69 S10       29.59F WCI  19
N. BATTLEFORD  MOSUNNY   30  19  64 SW9G17    29.46F WCI  22
LA RONGE       PTSUNNY   30  25  80 S10       29.26F WCI  21
SASKATOON      PTSUNNY   27  19  74 SW16      29.50F WCI  14
SWIFT CURRENT  FLURRIES  30  28  93 W14       29.58F WCI  20
$$
NOTE: THESE ARE AUTOMATED STATIONS WITH LIMITED QUALITY CONTROL
      "FAIR" INDICATES FEW OR NO CLOUDS BELOW 12,000 FEET WITH NO
      SIGNIFICANT WEATHER AND/OR OBSTRUCTIONS TO VISIBILITY.
      SKY/WX - SKY CONDITION AND SIGNIFICANT WEATHER.
      TMP - AIR TEMPERATURE.    DP   - DEWPOINT TEMPERATURE.
      RH  - RELATIVE HUMIDITY.  PRES - PRESSURE.
      HX  - HEAT INDEX.         WCI  - WIND CHILL INDEX.
$




USA.gov is the U.S. government's official web portal to all federal, state and local government web resources and services.